Back to catalog

STARLINK-37616

AliveCommunicationsSSO
NORAD 69040·PAYLOAD·🇺🇸 United States

Launched May 6, 2026 from Vandenberg Space Force Base

Loading…

Next Passes (next 24 hours)

TLE

FreshSource: CelesTrak SupGP

Epoch: Sep 14, 2026, 20:44 UTC

1 69040C 26101R   26257.86437500  .00022383  00000+0  69513-3 0  2575
2 69040  97.2849 111.3784 0001949  92.7387 201.9590 15.33412844    16

Track STARLINK-37616 in real time with AllMySat

Download on the App Store